Regional Weather Roundup
Issued by NWS San Angelo, TX

Home | Current Version | Previous Version | Text Only | Print | Product List | Glossary On
Versions: 1 2 3 4 5 6 7 8 9 10 11 12 13 14 15 16 17 18 19 20 21 22 23 24 25 26 27 28 29 30 31 32 33 34 35 36 37 38 39 40 41 42 43 44 45 46 47 48 49 50
000
ASUS44 KSJT 170102
RWRSJT
WEST CENTRAL TEXAS REGIONAL WEATHER ROUNDUP
NATIONAL WEATHER SERVICE SAN ANGELO TX
700 PM CST MON JAN 16 2017

NOTE: "FAIR" INDICATES FEW OR NO CLOUDS BELOW 12,000 FEET WITH NO
SIGNIFICANT WEATHER AND/OR OBSTRUCTIONS TO VISIBILITY.

TXZ049-054-064>066-071>073-076>078-098-099-113-114-127-128-139-140-
154-155-168>170-170200
...LOCATIONS ACROSS WEST CENTRAL TEXAS...

CITY           SKY/WX    TMP DP  RH WIND       PRES   REMARKS
SAN ANGELO     CLOUDY    57  39  51 E6        29.99R
ABILENE        CLOUDY    54  45  71 NE7       30.03R
DYESS AFB      NOT AVBL
JUNCTION       CLOUDY    59  51  75 NE3       30.00R
SWEETWATER     NOT AVBL
BROWNWOOD      CLOUDY    55  48  76 E3        30.02R
COLEMAN        CLOUDY    57  46  67 CALM      30.03R
SONORA         CLOUDY    57  41  54 CALM      30.04R
OZONA          FAIR      59  37  44 MISG      30.02R
BRADY          NOT AVBL
$$

TEXAS PANHANDLE/OKLAHOMA PANHANDLE

CITY           SKY/WX    TMP DP  RH WIND       PRES   REMARKS
AMARILLO       CLOUDY    39  34  82 NW10      30.08R WCI  32
BORGER         MOCLDY    38  33  82 NW5       30.08R WCI  34
CANADIAN       NOT AVBL
DALHART        CLOUDY    38  33  82 N9        30.08R WCI  31
DUMAS          MOCLDY    34  32  91 NW10      30.07R WCI  26
GUYMON         NOT AVBL
HEREFORD       MOCLDY    40  36  84 N14       30.09R WCI  33
PAMPA          NOT AVBL
PERRYTON       NOT AVBL
$$

SOUTHERN PANHANDLE/SOUTH PLAINS/ROLLING PLAINS

CITY           SKY/WX    TMP DP  RH WIND       PRES   REMARKS
LUBBOCK        PTCLDY    45  38  76 N7        30.04R
SNYDER         CLEAR     54  42  64 E6        30.04R
CHILDRESS      CLEAR     43  35  73 N9        30.07R WCI  38
SEMINOLE       CLEAR     53  39  59 CALM      30.02R
$$

PERMIAN BASIN

CITY           SKY/WX    TMP DP  RH WIND       PRES   REMARKS
MIDLAND        CLEAR     54  38  54 NE3       30.00R
ODESSA         CLEAR     55  37  50 N3        30.01R
WINK           CLEAR     55  33  43 NW5       29.98R
$$

FAR WEST/SOUTHWEST MOUNTAINS/TRANS PECOS

CITY           SKY/WX    TMP DP  RH WIND       PRES   REMARKS
ALPINE         CLEAR     50  32  49 S6        30.07R
DRYDEN           N/A     59  42  53 SE6       29.97R
EL PASO        MOCLDY    52  34  50 W5        30.01R
FORT STOCKTON  CLOUDY    55  38  52 E8        30.00R
GUADALUPE PASS CLEAR     46  31  55 W23       30.03R WCI  38
MARFA          CLEAR     49  31  49 SE5       30.04R
PECOS          CLEAR     58  36  43 N3        29.98R
$$

DALLAS/FORT WORTH METROPLEX

CITY           SKY/WX    TMP DP  RH WIND       PRES   REMARKS
DFW AIRPORT    MOCLDY    57  46  66 N7        30.02R
FTW MEACHAM    CLEAR     56  44  64 N5        30.03R
DAL-EXECUTIVE  CLEAR     54  47  77 CALM      30.02R
GRAND PRAIRIE  NOT AVBL
ADDISON        CLEAR     57  50  77 N5        30.03R
MESQUITE       CLEAR     57  46  67 CALM      30.02R
LANCASTER      CLEAR     54  49  84 CALM      30.03R
$$

NORTH CENTRAL TEXAS

CITY           SKY/WX    TMP DP  RH WIND       PRES   REMARKS
SHRMAN/DENISON CLEAR     50  42  75 NW6       30.05R
GAINESVILLE    CLEAR     47  38  71 NW6       30.06R
BRIDGEPORT     CLEAR     52  42  70 NW3       30.06R
DENTON         CLEAR     52  44  74 NW7       30.03R
WAXAHACHIE     CLOUDY    55  48  75 NW3       30.03R
GRANBURY       PTCLDY    56  48  72 CALM      30.05R
$$

WESTERN NORTH TEXAS

CITY           SKY/WX    TMP DP  RH WIND       PRES   REMARKS
WICHITA FALLS  CLEAR     47  39  74 NW8       30.05R
VERNON         CLEAR     46  36  66 NW8       30.07R
BRECKENRIDGE   NOT AVBL
COMANCHE       CLOUDY    59  46  61 E3        30.03R
$$

CENTRAL AND SOUTH CENTRAL TEXAS

CITY           SKY/WX    TMP DP  RH WIND       PRES   REMARKS
AUSTIN/BERGSTM CLOUDY    64  56  75 E9        29.98R
WACO           CLOUDY    63  53  70 N5        29.99S
HILLSBORO      CLOUDY    58  49  72 N5        30.01S
TEMPLE         CLOUDY    64  54  69 E3        30.00S
KILLEEN-GRAY   MOCLDY    62  50  64 N3        29.99R
FORT HOOD      NOT AVBL
GEORGETOWN     CLOUDY    64  48  55 CALM      29.99R
LAGO VISTA     CLOUDY    63  54  72 NE5       30.00R
SAN MARCOS     CLOUDY    63  55  77 NE6       30.00R
NEW BRAUNFELS  CLOUDY    66  54  65 NE6       29.97R
RANDOLPH AFB   CLOUDY    64  55  71 NE6       29.98R
SAN ANTONIO    CLOUDY    65  55  70 NE5       29.98R
STINSON        CLOUDY    67  55  65 N7        29.96R
PLEASANTON     NOT AVBL
LA GRANGE      LGT RAIN  60  59  97 CALM      29.98R
GIDDINGS       LGT RAIN  56  55  97 N5        30.01R
$$

EAST TEXAS

CITY           SKY/WX    TMP DP  RH WIND       PRES   REMARKS
PARIS          CLEAR     54  45  71 NW6       30.03R
CLARKSVILLE    NOT AVBL
TYLER          CLOUDY    57  56  96 SE5       30.00S
LONGVIEW       LGT RAIN  60  59  96 W7        30.01R
PALESTINE      CLOUDY    57  57 100 E3        30.03R
NACOGDOCHES    CLOUDY    68  64  88 N6        30.00R
$$

TEXAS HILL COUNTRY AND EDWARDS PLATEAU

CITY           SKY/WX    TMP DP  RH WIND       PRES   REMARKS
LLANO          NOT AVBL
HORSESHOE BAY  MOCLDY    61  55  81 CALM      29.99S
KERRVILLE      CLOUDY    63  48  58 NE7       30.00R
FREDERICKSBRG  NOT AVBL
ROCKSPRINGS    CLOUDY    57  46  67 CALM      30.02S
HONDO          PTCLDY    65  54  67 E6        29.97R
UVALDE         MOCLDY    64  52  67 CALM      29.96S
DEL RIO        CLOUDY    63  42  46 NW3       29.96R
$$

SOUTHEAST TEXAS

CITY           SKY/WX    TMP DP  RH WIND       PRES   REMARKS
COLLEGE STN    CLOUDY    60  57  89 NE8       30.00R
CALDWELL       NOT AVBL
CROCKETT       CLOUDY    59  57  94 N3        30.04R
BRENHAM        CLOUDY    62  61  96 NE3       30.00S
HUNTSVILLE     LGT RAIN  66  64  93 NW6       30.00R
CONROE         CLOUDY    73  63  70 S13       30.00R
HOUSTON BUSH   CLOUDY    73  66  78 S14       29.99R
HOUSTON HOBBY  CLOUDY    71  67  87 SE10      29.99S
PERLAND        MOCLDY    73  67  81 SE8       30.01S
WHARTON        PTCLDY   N/A N/A N/A SE12      29.98S
$$

THE UPPER TEXAS COAST

CITY           SKY/WX    TMP DP  RH WIND       PRES   REMARKS
ORANGE         CLOUDY   N/A N/A N/A S9        30.05R
PORT ARTHUR    CLOUDY    70  67  90 SE9       30.02R
GALVESTON      PTCLDY    70  68  93 SE13      30.01S
ANGLETON       LGT RAIN  73  68  84 SE10      29.99S
BAY CITY       CLOUDY    72  68  88 SE7       29.99R
$$

TEXAS COASTAL BEND, RIO GRANDE PLAINS DEEP SOUTH TEXAS

CITY           SKY/WX    TMP DP  RH WIND       PRES   REMARKS
VICTORIA       CLOUDY    72  68  87 SE13      29.96R
BEEVILLE       MOCLDY    71  71 100 SE7       29.93S
ROCKPORT       CLOUDY    71  67  87 SE12      29.95R
PORT ARANSAS   CLOUDY    69  67  93 SE14G21   29.93S FOG
PORT LAVACA    CLOUDY    72  70  95 SE12      29.96R
CORPUS CHRISTI CLOUDY    71  67  87 SE15      29.93R
KINGSVILLE NAS CLOUDY    73  69  87 SE9       29.93R
COTULLA        CLOUDY    70  57  63 NE6       29.94R
LAREDO         MOCLDY    71  55  56 W3        29.93R
BROWNSVILLE    MOCLDY    72  68  87 SE6       29.94R
PORT ISABEL    CLOUDY    71  68  90 SE8       29.93R
HEBBRONVILLE   CLOUDY    69  61  74 W5        29.94R
MCALLEN        CLOUDY    79  66  64 S9        29.93R
WESLACO        MOCLDY    74  67  76 S8        29.92R
FALFURRIAS     CLOUDY    74  61  64 S5        29.92R
EDINBURG       CLOUDY    74  63  66 SE3       29.92R
$$




USA.gov is the U.S. government's official web portal to all federal, state and local government web resources and services.